{"data":{"norad_id":81392,"intl_designator":"","name":"UNKNOWN","alt_names":[],"object_type":"UNKNOWN","status":"UNKNOWN","operator":null,"country":null,"launch_date":null,"launch_site_code":null,"launch_vehicle":null,"mission":null,"orbit_class":"UNKNOWN","rcs_meters":null,"size_class":null,"mass_kg":null,"dimensions":null,"purposes":[],"wikipedia_slug":null,"has_3d_model":false,"image_url":null,"decayed_at":null,"tle_current":{"epoch":"2026-05-22T07:21:35.881920Z","epoch_age_seconds":307774,"freshness":"STALE","line1":"1 81392U          26142.30666530  .00002246  00000+0  21029-2 0  9996","line2":"2 81392 100.4029 151.9778 0036605 351.2797  25.2344 13.82716531624361","mean_motion":13.82716531,"eccentricity":0.0036605,"inclination_deg":100.4029,"raan_deg":151.9778,"arg_perigee_deg":351.2797,"mean_anomaly_deg":25.2344,"bstar":0.0021029,"rev_number":62436,"period_min":104.14282086861,"perigee_km":927.42705402092,"apogee_km":981.10758604789,"semimajor_km":7332.4043200344,"source":"CELESTRAK","updated_at":"2026-05-25T13:38:09.451509Z"}}}